Temperature
14 14 14 14 14 14 14 14 14 14 14 14 14 14 14 14 14 15 15 15 15 15 15 15 15 15 15 15 15 15 15 15 15 15 15 15 15 15
14 14 14 14 14 14 14 14 14 14 14 13 13 13 14 14 14 14 14 14 14 14 14 14 14 14 14 14 15 15 15 15 15 15 15 15 15 15
13 13 13 13 13 13 13 14 14 14 14 13 13 13 13 13 13 14 14 14 14 14 14 14 14 14 14 14 14 14 14 14 14 14 14 14 15 15
13 13 13 13 13 13 13 13 13 13 13 13 12 13 13 13 13 13 13 13 13 13 13 13 13 13 13 13 13 13 13 13 13 14 14 14 14 14
12 12 12 12 12 13 13 13 13 13 13 13 12 12 12 12 13 13 13 13 13 13 13 12 12 12 12 12 12 12 13 13 13 13 14 14 14 14
11 11 12 12 12 12 12 13 13 12 12 12 12 12 12 12 12 12 12 12 12 12 12 12 12 12 12 12 12 12 12 12 12 13 13 14 14 14
11 11 11 12 12 12 12 12 12 12 12 12 12 12 11 11 11 11 11 12 12 11 12 12 12 12 12 12 12 12 12 12 12 12 13 13 14 14
11 11 11 11 11 11 11 11 12 12 11 11 11 11 10 10 10 11 11 11 11 11 11 11 11 11 11 11 11 11 11 11 12 12 12 13 13 14
11 11 11 11 11 11 11 11 11 11 11 11 10 10 10 10 10 10 10 10 10 10 11 11 11 11 11 11 11 11 11 11 11 11 12 12 13 13
11 11 11 11 11 11 11 10 10 10 10 10 10 10 10 10 10 10 10 10 10 10 10 10 10 11 11 10 10 10 10 10 10 10 11 11 12 12
10 10 10 10 10 10 10 10 10 10 10 10 10 10 9 9 9 9 9 10 9 9 9 9 10 10 10 10 10 10 10 10 10 10 10 10 11 11
10 10 10 10 10 10 10 10 10 10 10 10 10 9 9 9 9 9 9 9 9 9 9 9 9 9 10 9 9 9 9 9 9 9 9 10 10 10
10 10 10 10 10 10 10 10 10 10 10 9 9 9 9 9 9 9 8 8 8 8 8 8 8 9 9 9 9 9 9 9 9 9 9 9 9 9
10 10 10 10 10 9 9 9 9 9 9 9 9 8 8 8 8 8 8 8 8 8 8 8 8 8 8 8 8 8 9 9 9 9 9 9 9 9
10 10 10 9 9 9 9 9 9 9 9 9 8 8 8 8 8 8 8 8 8 7 7 7 7 7 8 7 8 8 8 8 8 8 8 8 8 9
10 10 10 9 9 9 9 9 9 9 8 8 8 8 8 8 8 8 7 7 7 7 7 7 7 7 7 7 7 7 7 7 8 8 8 8 8 8
10 10 10 10 9 9 9 9 9 9 8 8 8 8 8 8 7 7 7 7 7 7 7 7 7 7 7 7 7 7 7 7 7 7 8 8 8 8
10 10 10 10 10 9 9 9 9 9 8 8 8 8 8 7 7 7 7 7 7 7 6 6 6 7 7 6 6 6 6 6 7 7 7 7 7 7
10 10 10 10 10 10 10 9 9 9 9 8 8 8 8 7 7 7 7 7 7 6 6 6 6 6 6 6 6 6 6 6 6 6 6 7 6 6
10 10 10 10 10 10 10 10 9 9 9 9 8 8 8 7 7 7 7 7 7 6 6 6 6 6 6 6 6 6 6 6 6 6 6 6 6 6
10 10 10 10 10 10 10 10 10 9 9 9 9 8 8 8 7 7 7 6 6 6 6 6 6 6 6 6 6 6 6 6 5 5 5 5 5 5
10 10 10 10 10 10 10 10 10 10 9 9 9 9 8 8 7 7 7 6 6 6 6 5 5 5 5 5 5 5 5 5 5 5 5 5 5 5
10 10 10 10 10 10 10 10 10 10 10 9 9 9 8 8 8 7 7 6 6 5 5 5 5 5 5 5 5 5 5 5 5 5 5 5 5 4
Wind_Speed
5 4 3 2 2 2 3 3 4 2 1 3 3 4 3 3 4 3 3 3 2 2 2 1 1 2 2 3 5 6 7 9 11 13 15 18 20 22
3 4 4 3 3 3 2 2 3 4 2 1 2 3 4 4 6 6 5 4 3 2 2 1 1 2 2 3 4 6 7 9 11 13 15 17 19 21
5 6 6 5 4 4 4 3 3 3 4 2 4 5 7 7 6 6 6 5 4 4 3 2 2 2 3 4 5 6 8 10 12 14 16 18 19 21
7 7 7 7 7 5 5 5 4 4 5 5 4 6 6 6 6 6 5 5 4 6 5 3 3 3 4 5 6 7 9 11 13 14 16 18 20 22
9 8 7 8 8 6 7 7 6 7 6 6 4 4 4 4 5 5 6 5 5 7 7 5 4 5 5 5 6 8 9 11 13 15 16 18 20 22
8 8 8 8 7 8 8 8 8 9 8 7 5 4 4 3 4 5 5 4 4 6 6 6 6 6 6 6 6 8 10 12 14 15 16 18 19 21
8 8 8 10 10 8 8 7 8 8 7 6 5 5 5 5 4 4 4 4 3 4 4 4 3 4 4 6 7 10 11 12 14 15 16 17 18 19
8 7 8 9 11 12 12 10 9 8 6 5 4 4 4 3 4 4 4 5 4 5 4 4 3 3 3 3 8 10 11 12 14 14 15 15 15 16
7 7 7 7 7 7 10 11 11 10 7 6 4 2 2 2 3 5 4 3 2 5 4 4 4 4 4 4 8 9 10 12 13 14 14 14 14 12
7 7 7 6 6 8 9 8 7 7 6 4 3 1 0 1 0 1 2 3 3 3 4 3 5 4 4 3 7 8 9 10 12 13 14 13 12 10
6 6 8 7 10 12 9 8 7 7 7 9 7 6 7 7 4 4 5 5 4 4 3 3 4 4 4 3 5 8 9 9 10 12 14 14 13 10
5 5 8 9 11 11 8 8 7 5 5 7 8 9 8 8 9 5 3 3 2 3 4 4 4 4 4 4 3 4 6 7 9 10 12 14 14 7
5 3 3 9 11 11 9 6 5 4 5 6 6 6 6 6 7 5 3 3 3 2 4 4 3 4 3 4 4 4 4 4 4 5 8 11 13 9
6 4 4 8 9 9 7 8 10 8 6 6 6 5 5 5 5 5 5 4 3 1 5 4 2 3 4 4 4 5 4 5 5 5 4 6 8 11
6 9 8 8 7 6 7 8 7 6 5 5 4 3 2 3 4 5 7 6 6 8 10 7 4 3 3 3 4 5 4 5 6 6 5 5 4 4
6 7 7 6 5 4 4 4 4 4 5 4 2 2 3 4 4 4 4 4 5 6 8 11 8 5 4 4 4 5 5 5 6 6 5 5 5 5
7 4 3 2 2 2 2 3 3 4 4 3 3 4 4 4 3 3 3 4 4 4 6 6 6 4 4 4 5 5 6 5 6 6 5 5 6 6
8 4 4 3 3 4 3 2 2 3 4 3 3 3 3 2 2 3 3 4 3 3 4 5 6 6 6 4 4 4 5 5 6 6 5 5 5 6
5 5 4 4 4 5 5 5 4 4 4 4 4 3 3 2 2 2 3 3 3 3 4 4 4 4 5 5 6 5 4 5 6 6 6 5 4 4
4 5 5 5 5 6 7 6 5 5 4 4 3 3 3 3 2 2 2 2 2 3 5 5 4 3 1 2 3 5 7 4 4 5 5 4 3 3
5 5 5 5 5 6 8 7 7 6 5 5 4 4 4 3 3 2 2 3 3 3 4 4 5 6 1 3 4 6 6 6 4 2 4 4 4 4
7 7 6 6 6 7 7 8 7 6 6 5 5 5 5 4 4 4 3 3 2 2 1 3 5 5 5 4 4 4 6 7 7 7 5 3 2 3
8 7 7 6 7 7 7 8 9 7 7 7 6 6 6 5 5 5 4 4 3 2 2 3 5 4 4 3 3 3 5 6 5 6 5 8 6 5
Wind_Direction
195 186 170 172 166 163 167 164 154 141 15 341 359 354 1 18 14 13 350 338 347 323 298 270 245 247 253 257 260 265 265 262 259 258 255 251 244 239
155 142 131 119 106 99 107 116 134 146 145 4 5 354 8 21 18 13 358 359 1 354 337 287 263 261 266 272 279 281 278 274 270 266 260 255 250 244
112 113 103 103 92 83 85 90 89 112 117 50 21 14 26 21 9 13 18 21 18 20 11 339 310 294 290 293 296 295 292 287 282 277 270 262 255 249
100 97 91 88 77 73 78 74 73 87 110 93 34 21 25 17 16 18 13 23 25 25 18 2 341 320 306 301 302 303 300 296 290 284 279 271 262 254
95 92 87 87 80 72 71 73 77 83 86 92 54 20 17 13 11 11 13 11 18 21 19 11 355 343 328 317 313 310 308 304 298 291 284 275 267 260
86 85 83 86 86 81 78 78 86 85 80 78 60 28 13 347 15 9 4 1 9 12 12 17 16 14 6 355 340 330 322 314 307 301 294 285 273 263
82 77 77 80 80 83 90 87 90 89 82 77 62 42 22 13 0 346 359 342 346 358 351 353 358 4 4 358 346 335 327 320 315 309 304 296 283 268
98 85 75 66 72 75 82 86 94 99 96 86 71 59 24 3 351 359 1 12 351 339 352 332 344 339 328 335 339 338 335 332 327 322 316 309 298 279
100 89 81 65 66 76 72 67 65 76 98 115 93 72 38 348 6 10 10 14 329 316 349 331 329 321 312 323 337 341 342 340 339 336 331 325 317 301
95 96 93 72 75 91 83 68 55 45 53 77 108 122 132 273 134 333 309 344 329 330 18 350 320 311 310 312 327 335 338 342 345 348 348 345 340 332
87 92 97 87 89 94 88 75 53 27 39 62 76 74 56 47 56 45 25 31 359 323 350 360 314 311 311 311 321 333 336 341 348 354 359 360 359 357
88 81 91 100 95 93 92 85 68 35 42 55 50 40 35 31 39 57 72 57 19 336 323 347 326 338 330 313 324 339 339 337 344 353 2 9 8 12
128 119 107 106 98 93 94 88 93 101 77 73 58 37 26 24 19 20 46 90 76 354 315 346 338 337 324 311 323 331 341 337 336 345 1 14 20 26
153 157 152 126 105 92 82 81 87 87 79 68 57 39 26 11 1 10 25 44 69 40 341 5 6 337 342 344 329 326 335 353 354 351 354 7 23 37
162 169 162 135 99 78 68 81 82 84 83 75 64 36 354 348 9 18 18 23 26 27 23 20 19 7 26 9 336 333 332 345 356 358 1 12 15 19
146 160 146 117 91 78 63 66 80 102 111 106 92 37 21 32 29 25 28 18 27 360 358 13 21 35 25 5 8 359 351 347 348 353 2 15 23 30
137 111 105 102 90 73 66 71 79 90 98 94 80 59 43 40 21 11 33 41 43 3 345 345 354 23 58 37 18 0 352 348 348 352 5 22 30 32
140 145 160 168 172 166 153 141 127 125 128 119 98 87 74 64 33 15 33 48 39 3 344 340 356 10 10 6 30 6 354 347 345 357 8 19 28 35
146 163 174 186 189 176 168 164 165 164 151 136 124 112 100 87 68 39 28 35 30 7 344 344 11 34 27 355 329 10 11 346 351 3 11 18 26 24
169 173 186 190 184 173 170 169 164 158 154 153 147 137 125 113 92 69 58 60 47 24 10 2 3 2 352 290 301 323 2 8 0 359 354 358 19 32
186 183 184 182 183 177 174 173 171 171 169 165 167 165 156 137 124 117 108 84 78 53 30 350 314 326 320 33 13 343 333 354 16 3 351 4 5 6
186 189 189 187 185 182 176 174 176 177 175 175 178 177 172 156 149 146 137 121 108 99 39 339 347 12 33 36 5 332 333 341 354 9 19 26 33 9
189 189 189 190 189 185 181 179 179 185 186 184 184 183 178 170 164 157 152 143 134 109 57 12 4 13 10 11 360 342 345 347 351 360 354 6 29 39
Height
1453 1455 1455 1458 1460 1461 1463 1465 1467 1467 1469 1469 1470 1469 1469 1468 1467 1466 1466 1465 1465 1465 1465 1465 1466 1467 1468 1470 1471 1472 1473 1475 1476 1477 1478 1479 1481 1482
1449 1451 1453 1455 1457 1459 1461 1462 1464 1466 1468 1469 1469 1468 1467 1467 1466 1465 1464 1464 1463 1463 1463 1463 1463 1464 1464 1465 1466 1467 1467 1468 1469 1470 1470 1471 1472 1473
1446 1449 1451 1453 1455 1457 1460 1461 1462 1464 1466 1468 1468 1467 1467 1466 1465 1464 1463 1462 1462 1461 1461 1460 1460 1461 1461 1461 1461 1461 1462 1462 1462 1463 1463 1463 1463 1464
1445 1448 1450 1452 1454 1457 1459 1460 1462 1464 1466 1466 1467 1467 1466 1465 1464 1463 1462 1461 1460 1460 1459 1458 1458 1458 1458 1457 1457 1457 1457 1457 1456 1456 1455 1455 1455 1455
1446 1449 1451 1453 1455 1457 1459 1461 1463 1464 1466 1466 1467 1467 1466 1466 1465 1464 1462 1461 1460 1459 1458 1457 1456 1455 1455 1454 1453 1452 1452 1451 1450 1449 1448 1447 1446 1446
1449 1451 1454 1456 1457 1459 1460 1462 1464 1465 1466 1467 1468 1467 1467 1466 1465 1464 1462 1461 1460 1459 1457 1456 1455 1453 1452 1451 1450 1449 1447 1446 1444 1442 1440 1438 1437 1436
1452 1455 1457 1458 1460 1461 1463 1465 1466 1467 1467 1468 1468 1468 1467 1467 1466 1465 1463 1462 1460 1458 1457 1455 1454 1452 1450 1449 1447 1445 1443 1441 1439 1436 1433 1430 1428 1426
1455 1458 1460 1461 1462 1464 1466 1467 1468 1468 1469 1469 1469 1469 1469 1469 1468 1466 1464 1462 1460 1460 1457 1455 1453 1451 1449 1447 1444 1442 1439 1437 1434 1430 1427 1423 1419 1417
1459 1460 1462 1463 1465 1466 1467 1468 1469 1470 1471 1471 1470 1470 1470 1470 1469 1467 1465 1463 1461 1460 1458 1455 1453 1450 1448 1445 1443 1440 1437 1434 1430 1426 1422 1417 1412 1409
1461 1463 1464 1465 1467 1468 1469 1470 1471 1471 1472 1472 1472 1472 1472 1471 1469 1468 1466 1464 1462 1461 1458 1455 1453 1450 1448 1445 1442 1439 1435 1432 1428 1424 1419 1413 1408 1403
1463 1464 1465 1466 1468 1469 1470 1471 1471 1472 1473 1473 1473 1473 1472 1471 1470 1468 1466 1464 1462 1461 1459 1456 1453 1450 1447 1444 1441 1438 1435 1431 1427 1423 1418 1413 1407 1403
1464 1466 1467 1467 1468 1470 1471 1471 1472 1473 1473 1474 1474 1474 1473 1472 1470 1468 1467 1465 1463 1461 1460 1457 1454 1450 1447 1445 1441 1438 1434 1431 1427 1423 1419 1415 1409 1405
1465 1466 1467 1468 1469 1470 1471 1472 1473 1474 1474 1475 1475 1474 1473 1472 1471 1469 1468 1466 1464 1463 1461 1458 1455 1451 1449 1445 1442 1439 1435 1431 1428 1424 1421 1417 1413 1409
1465 1467 1468 1469 1470 1472 1473 1474 1475 1475 1475 1475 1475 1474 1474 1473 1473 1471 1470 1468 1466 1464 1462 1459 1456 1453 1449 1446 1443 1440 1436 1433 1429 1426 1423 1420 1417 1414
1465 1467 1468 1470 1471 1473 1474 1475 1476 1476 1476 1476 1476 1476 1476 1475 1474 1473 1471 1470 1468 1465 1463 1460 1457 1454 1451 1448 1445 1441 1437 1434 1431 1428 1425 1422 1420 1418
1465 1467 1469 1471 1472 1474 1475 1476 1476 1476 1476 1476 1477 1477 1477 1476 1475 1474 1472 1471 1469 1466 1464 1461 1458 1455 1452 1450 1447 1443 1440 1437 1434 1431 1428 1425 1423 1422
1463 1466 1468 1470 1472 1474 1475 1476 1476 1477 1477 1477 1478 1478 1478 1477 1476 1475 1473 1472 1469 1467 1465 1462 1459 1457 1454 1452 1449 1446 1443 1440 1437 1434 1431 1428 1427 1425
1462 1464 1467 1469 1471 1473 1474 1476 1477 1477 1478 1478 1478 1478 1478 1478 1477 1476 1474 1473 1471 1469 1467 1464 1461 1459 1456 1453 1452 1448 1445 1442 1439 1437 1434 1432 1430 1429
1460 1462 1465 1467 1469 1471 1473 1475 1476 1477 1478 1479 1479 1479 1479 1478 1477 1476 1475 1474 1472 1470 1468 1466 1463 1460 1457 1455 1454 1451 1448 1445 1442 1439 1437 1435 1433 1432
1457 1460 1463 1465 1467 1469 1471 1474 1475 1476 1478 1478 1479 1479 1478 1478 1477 1476 1475 1474 1472 1471 1469 1467 1464 1462 1460 1458 1456 1453 1451 1448 1445 1442 1440 1438 1436 1435
1453 1457 1460 1463 1465 1467 1470 1472 1474 1475 1476 1477 1478 1478 1478 1477 1476 1476 1475 1474 1472 1471 1469 1467 1466 1464 1462 1460 1457 1455 1453 1450 1448 1445 1442 1440 1438 1436
1450 1454 1457 1460 1463 1465 1468 1470 1472 1474 1475 1476 1476 1476 1476 1476 1475 1474 1474 1473 1471 1470 1469 1467 1466 1464 1462 1460 1458 1456 1454 1452 1450 1448 1445 1443 1441 1438
1446 1450 1454 1457 1460 1463 1465 1467 1469 1471 1472 1473 1474 1474 1474 1474 1473 1472 1472 1471 1470 1469 1467 1466 1465 1463 1462 1460 1459 1457 1455 1453 1451 1449 1447 1445 1443 1441